Volver al catálogo

STARLINK-1269

ActivoComunicacionesVLEO
NORAD 45197·PAYLOAD·🇺🇸 United States

Lanzado Feb 17, 2020 desde Cape Canaveral Space Force Station

Loading…

Próximos Pases (próximas 24 horas)

TLE

ActualizadoSource: CelesTrak SupGP

Época: Sep 14, 2026, 20:21 UTC

1 45197C 20012V   26257.84840278  .00062186  00000+0  13896-2 0  2572
2 45197  53.1509 233.7109 0003261  50.6023  73.2751 15.42896916    11

Sigue STARLINK-1269 en tiempo real con AllMySat

Download on the App Store